When you browse on this site, cookies collect data to enhance your experience and personalize the content and advertising you see.
Visit our Privacy Policy to learn more. By continuing to use the site, you agree to this use of cookies and data.
  • en France
  • Liste des pays
  • À 7 jours
  • Température de l'eau
  • Carte météo
  • Widgets météo
  • user-avatar
    Se connecter

    Météo par heure à Gloster

    Ce jour, 9 Décembre, Lundi

    Heure Température Précipitation Vent Pression Humidité
    00:00 +5°C° 0 mm 4 m/s 737 mmHg 87%
    01:00 +5°C° 0.4 mm 6 m/s 737 mmHg 86%
    02:00 +5°C° 0.4 mm 7 m/s 737 mmHg 85%
    03:00 +6°C° 0.4 mm 9 m/s 738 mmHg 83%
    04:00 +6°C° 0 mm 9 m/s 740 mmHg 80%
    05:00 +5°C° 0 mm 9 m/s 742 mmHg 77%
    06:00 +5°C° 0 mm 7 m/s 745 mmHg 79%
    07:00 +5°C° 0 mm 7 m/s 747 mmHg 78%
    08:00 +5°C° 0 mm 7 m/s 749 mmHg 78%
    09:00 +4°C° 0 mm 7 m/s 751 mmHg 77%
    10:00 +5°C° 0 mm 7 m/s 752 mmHg 75%
    11:00 +5°C° 0 mm 8 m/s 754 mmHg 72%
    12:00 +7°C° 0 mm 6 m/s 755 mmHg 71%
    13:00 +7°C° 0 mm 5 m/s 756 mmHg 72%
    14:00 +6°C° 0 mm 5 m/s 757 mmHg 73%
    15:00 +6°C° 0 mm 4 m/s 757 mmHg 74%
    16:00 +5°C° 0 mm 3 m/s 759 mmHg 78%
    17:00 +4°C° 0 mm 3 m/s 760 mmHg 81%
    18:00 +4°C° 0 mm 2 m/s 761 mmHg 84%
    19:00 +4°C° 0 mm 2 m/s 761 mmHg 85%
    20:00 +3°C° 0 mm 2 m/s 761 mmHg 85%
    21:00 +3°C° 0 mm 2 m/s 761 mmHg 86%
    22:00 +3°C° 0 mm 2 m/s 761 mmHg 87%
    23:00 +3°C° 0 mm 2 m/s 761 mmHg 88%

    Demain, 10 Décembre, Mardi

    Heure Température Précipitation Vent Pression Humidité
    00:00 +3°C° 0 mm 2 m/s 761 mmHg 89%
    01:00 +2°C° 0 mm 3 m/s 761 mmHg 88%
    02:00 +2°C° 0 mm 3 m/s 760 mmHg 88%
    03:00 +3°C° 0 mm 4 m/s 760 mmHg 88%
    04:00 +2°C° 0 mm 5 m/s 759 mmHg 88%
    05:00 +3°C° 0 mm 5 m/s 758 mmHg 89%
    06:00 +3°C° 0 mm 6 m/s 757 mmHg 90%
    07:00 +4°C° 0.1 mm 7 m/s 755 mmHg 90%
    08:00 +5°C° 0.1 mm 8 m/s 754 mmHg 89%
    09:00 +6°C° 0.1 mm 9 m/s 753 mmHg 89%
    10:00 +7°C° 0.8 mm 10 m/s 752 mmHg 90%
    11:00 +7°C° 0.8 mm 11 m/s 751 mmHg 90%
    12:00 +8°C° 0.8 mm 11 m/s 750 mmHg 90%
    13:00 +9°C° 0.2 mm 11 m/s 748 mmHg 90%
    14:00 +9°C° 0.2 mm 11 m/s 746 mmHg 89%
    15:00 +11°C° 0.2 mm 11 m/s 744 mmHg 88%
    16:00 +11°C° 0.9 mm 11 m/s 744 mmHg 88%
    17:00 +9°C° 0.9 mm 11 m/s 744 mmHg 87%
    18:00 +9°C° 0.9 mm 10 m/s 744 mmHg 86%
    19:00 +7°C° 0.3 mm 8 m/s 745 mmHg 84%
    20:00 +6°C° 0.3 mm 7 m/s 746 mmHg 83%
    21:00 +6°C° 0.3 mm 5 m/s 747 mmHg 81%
    22:00 +5°C° 0 mm 5 m/s 747 mmHg 82%
    23:00 +4°C° 0 mm 4 m/s 748 mmHg 82%

    Après-demain, 11 Décembre, Mercredi

    Heure Température Précipitation Vent Pression Humidité
    00:00 +4°C° 0 mm 4 m/s 749 mmHg 83%
    01:00 +3°C° 0 mm 4 m/s 749 mmHg 83%
    02:00 +3°C° 0 mm 4 m/s 749 mmHg 84%
    03:00 +3°C° 0 mm 3 m/s 748 mmHg 84%
    04:00 +3°C° 0 mm 3 m/s 748 mmHg 85%
    05:00 +3°C° 0 mm 4 m/s 748 mmHg 87%
    06:00 +3°C° 0 mm 4 m/s 748 mmHg 88%
    07:00 +3°C° 0.1 mm 4 m/s 747 mmHg 88%
    08:00 +3°C° 0.1 mm 4 m/s 747 mmHg 89%
    09:00 +3°C° 0.1 mm 4 m/s 746 mmHg 89%
    10:00 +4°C° 0 mm 4 m/s 746 mmHg 85%
    11:00 +5°C° 0 mm 5 m/s 745 mmHg 82%
    12:00 +6°C° 0 mm 5 m/s 745 mmHg 78%
    13:00 +5°C° 0.9 mm 5 m/s 745 mmHg 81%
    14:00 +3°C° 0.9 mm 5 m/s 744 mmHg 83%
    15:00 +2°C° 0.9 mm 5 m/s 744 mmHg 85%
    16:00 +3°C° 0 mm 4 m/s 745 mmHg 86%
    17:00 +1°C° 0 mm 4 m/s 745 mmHg 87%
    18:00 +1°C° 0 mm 3 m/s 745 mmHg 88%
    19:00 +1°C° 0 mm 3 m/s 746 mmHg 87%
    20:00 +1°C° 0 mm 3 m/s 746 mmHg 86%
    21:00 +1°C° 0 mm 3 m/s 747 mmHg 86%
    22:00 +1°C° 0 mm 3 m/s 747 mmHg 86%
    23:00 +1°C° 0 mm 3 m/s 747 mmHg 86%

    12 Décembre, Jeudi

    Heure Température Précipitation Vent Pression Humidité
    00:00 +1°C° 0 mm 3 m/s 747 mmHg 87%
    01:00 +1°C° 0 mm 3 m/s 747 mmHg 86%
    02:00 +1°C° 0 mm 3 m/s 747 mmHg 86%
    03:00 +1°C° 0 mm 3 m/s 746 mmHg 85%
    04:00 0°C° 0 mm 4 m/s 745 mmHg 86%
    05:00 0°C° 0 mm 4 m/s 745 mmHg 87%
    06:00 0°C° 0 mm 4 m/s 744 mmHg 88%
    07:00 +1°C° 0.2 mm 5 m/s 742 mmHg 89%
    08:00 +2°C° 0.2 mm 6 m/s 741 mmHg 90%
    09:00 +3°C° 0.2 mm 7 m/s 739 mmHg 91%
    10:00 +4°C° 1.4 mm 8 m/s 737 mmHg 92%
    11:00 +5°C° 1.4 mm 9 m/s 734 mmHg 93%
    12:00 +6°C° 1.4 mm 10 m/s 732 mmHg 93%
    13:00 +7°C° 2 mm 9 m/s 729 mmHg 92%
    14:00 +7°C° 2 mm 9 m/s 727 mmHg 90%
    15:00 +8°C° 2 mm 9 m/s 725 mmHg 89%
    16:00 +7°C° 0.8 mm 9 m/s 724 mmHg 85%
    17:00 +6°C° 0.8 mm 10 m/s 724 mmHg 81%
    18:00 +3°C° 0.8 mm 10 m/s 723 mmHg 78%
    19:00 +3°C° 0.2 mm 10 m/s 723 mmHg 77%
    20:00 +2°C° 0.2 mm 9 m/s 724 mmHg 77%
    21:00 +1°C° 0.2 mm 8 m/s 724 mmHg 76%
    22:00 +1°C° 0.2 mm 9 m/s 723 mmHg 77%
    23:00 +1°C° 0.2 mm 9 m/s 723 mmHg 77%

    13 Décembre, Vendredi

    Heure Température Précipitation Vent Pression Humidité
    00:00 +1°C° 0.2 mm 10 m/s 722 mmHg 78%
    01:00 +1°C° 0.5 mm 10 m/s 721 mmHg 83%
    02:00 +1°C° 0.5 mm 11 m/s 721 mmHg 88%
    03:00 +1°C° 0.5 mm 11 m/s 720 mmHg 92%
    04:00 +1°C° 1 mm 11 m/s 720 mmHg 90%
    05:00 +2°C° 1 mm 11 m/s 720 mmHg 87%
    06:00 +3°C° 1 mm 11 m/s 720 mmHg 84%
    07:00 +3°C° 0.1 mm 11 m/s 722 mmHg 84%
    08:00 +3°C° 0.1 mm 10 m/s 723 mmHg 85%
    09:00 +3°C° 0.1 mm 9 m/s 724 mmHg 85%
    10:00 +3°C° 0 mm 10 m/s 725 mmHg 81%
    11:00 +3°C° 0 mm 10 m/s 726 mmHg 78%
    12:00 +3°C° 0 mm 11 m/s 727 mmHg 75%
    13:00 +3°C° 0 mm 11 m/s 727 mmHg 75%
    14:00 +3°C° 0 mm 10 m/s 728 mmHg 75%
    15:00 +3°C° 0 mm 10 m/s 728 mmHg 75%
    16:00 +2°C° 0 mm 10 m/s 729 mmHg 77%
    17:00 +2°C° 0 mm 10 m/s 729 mmHg 80%
    18:00 +2°C° 0 mm 10 m/s 729 mmHg 82%
    19:00 +2°C° 0 mm 9 m/s 730 mmHg 81%
    20:00 +1°C° 0 mm 9 m/s 730 mmHg 80%
    21:00 +1°C° 0 mm 9 m/s 731 mmHg 79%
    22:00 +1°C° 0 mm 8 m/s 731 mmHg 78%
    23:00 +1°C° 0 mm 8 m/s 731 mmHg 78%

    14 Décembre, Samedi

    Heure Température Précipitation Vent Pression Humidité
    00:00 +2°C° 0 mm 7 m/s 731 mmHg 78%
    01:00 +2°C° 0 mm 7 m/s 731 mmHg 78%
    02:00 +2°C° 0 mm 7 m/s 732 mmHg 77%
    03:00 +2°C° 0 mm 7 m/s 732 mmHg 77%
    04:00 +1°C° 0 mm 6 m/s 732 mmHg 77%
    05:00 +1°C° 0 mm 6 m/s 732 mmHg 78%
    06:00 +1°C° 0 mm 6 m/s 733 mmHg 78%
    07:00 +1°C° 0.1 mm 5 m/s 733 mmHg 79%
    08:00 +1°C° 0.1 mm 5 m/s 733 mmHg 81%
    09:00 +1°C° 0.1 mm 5 m/s 734 mmHg 82%
    10:00 +2°C° 0.2 mm 7 m/s 734 mmHg 79%
    11:00 +2°C° 0.2 mm 8 m/s 734 mmHg 76%
    12:00 +2°C° 0.2 mm 10 m/s 735 mmHg 74%
    13:00 +2°C° 0 mm 9 m/s 735 mmHg 71%
    14:00 +2°C° 0 mm 8 m/s 736 mmHg 69%
    15:00 +2°C° 0 mm 7 m/s 737 mmHg 66%
    16:00 +2°C° 0 mm 6 m/s 737 mmHg 70%
    17:00 +1°C° 0 mm 5 m/s 737 mmHg 73%
    18:00 0°C° 0 mm 4 m/s 737 mmHg 76%
    19:00 +1°C° 1.7 mm 3 m/s 736 mmHg 84%
    20:00 +1°C° 1.7 mm 2 m/s 736 mmHg 91%
    21:00 +2°C° 1.7 mm 1 m/s 735 mmHg 99%
    22:00 +2°C° 1 mm 1 m/s 735 mmHg 98%
    23:00 +1°C° 1 mm 1 m/s 736 mmHg 97%
    Voir plus